Milan, NH

7:09 AM EST on December 10, 2016 (GMT -0500)
Berlin Municipal

Weather History for KBML - March, 2013

Change the Weather History Date:

Friday, March 15, 2013

  Actual Average Record
Temperature  
Mean Temperature 21 °F -  
Max Temperature 32 °F 32 °F 54 °F (2007)
Min Temperature 10 °F 11 °F 1 °F (2011)
Degree Days  
Heating Degree Days 44    
Moisture  
Dew Point 9 °F    
Average Humidity 64    
Maximum Humidity 86    
Minimum Humidity 28    
Precipitation  
Precipitation 0.00 in - - ()
Sea Level Pressure  
Sea Level Pressure 29.70 in    
Wind  
Wind Speed 4 mph (WNW)    
Max Wind Speed 9 mph    
Max Gust Speed 18 mph    
Visibility 8 miles    
Events Snow    
Averages and records for this station are not official NWS values.
T = Trace of Precipitation, MM = Missing Value Source: NWS Daily Summary

Daily Weather History Graph

Daily Weather History Graph

Search for Another Location

Airport or City:

Trip Planner

Search our weather history database for the weather conditions in past years. The results will help you decide how hot, cold, wet, or windy it might be!

Date:

Astronomy

Mar. 15, 2013 Rise Set
Actual Time 6:56 AM EDT 6:51 PM EDT
Civil Twilight 6:27 AM EDT 7:20 PM EDT
Nautical Twilight 5:53 AM EDT 7:54 PM EDT
Astronomical Twilight 5:19 AM EDT 8:28 PM EDT
Moon 8:34 AM EDT (3/15) 11:13 PM EDT (3/15)
Length of Visible Light 12h 52m
Length of Day
11h 54m
Waxing Crescent, 15% of the Moon is Illuminated
Mar 15
Waxing Crescent
Mar 19
First Quarter
Mar 27
Full
Apr 3
Last Quarter
Apr 10
New

Hourly Weather History & Observations

Time (EDT) Temp. Windchill Dew Point Humidity Pressure Visibility Wind Dir Wind Speed Gust Speed Precip Events Conditions
12:52 AM 15.1 °F 9.4 °F 3.0 °F 59% 29.83 in 10.0 mi NW 3.5 mph - N/A   Overcast
1:52 AM 12.9 °F - 1.0 °F 59% 29.84 in 10.0 mi Calm Calm - N/A   Mostly Cloudy
2:52 AM 12.9 °F 0.7 °F 1.0 °F 59% 29.83 in 10.0 mi NW 9.2 mph - N/A   Scattered Clouds
3:25 AM 12.2 °F 4.3 °F 5.0 °F 73% 29.77 in 2.0 mi WNW 4.6 mph - 0.00 in Snow Light Snow
3:52 AM 12.0 °F - 6.1 °F 77% 29.83 in 2.5 mi Calm Calm - 0.00 in Snow Light Snow
4:01 AM 12.2 °F 2.9 °F 6.8 °F 79% 29.76 in 1.8 mi WNW 5.8 mph - 0.00 in Snow Light Snow
4:10 AM 12.2 °F 1.7 °F 6.8 °F 79% 29.76 in 2.5 mi Variable 6.9 mph - 0.00 in Snow Light Snow
4:23 AM 12.2 °F 0.7 °F 5.0 °F 73% 29.76 in 2.5 mi West 8.1 mph - 0.00 in Snow Light Snow
4:52 AM 12.0 °F 1.5 °F 3.9 °F 70% 29.82 in 4.0 mi WNW 6.9 mph - 0.00 in Snow Light Snow
5:36 AM 12.2 °F 1.7 °F 3.2 °F 67% 29.76 in 9.0 mi West 6.9 mph - 0.00 in   Overcast
5:52 AM 10.9 °F 4.7 °F 3.0 °F 70% 29.83 in 10.0 mi Variable 3.5 mph - 0.00 in   Overcast
6:36 AM 10.4 °F -0.4 °F 3.2 °F 73% 29.76 in 6.0 mi Variable 6.9 mph - N/A   Haze
6:52 AM 10.9 °F 1.4 °F 3.0 °F 70% 29.83 in 6.0 mi Variable 5.8 mph - N/A   Haze
7:52 AM 12.0 °F 2.7 °F 1.9 °F 64% 29.82 in 10.0 mi Variable 5.8 mph - N/A   Overcast
8:52 AM 15.1 °F 7.7 °F 3.0 °F 59% 29.82 in 10.0 mi Variable 4.6 mph - N/A   Mostly Cloudy
9:09 AM 15.8 °F 8.6 °F 3.2 °F 58% 29.74 in 10.0 mi Variable 4.6 mph - N/A   Scattered Clouds
9:52 AM 18.0 °F 11.1 °F 3.0 °F 52% 29.80 in 10.0 mi Variable 4.6 mph - N/A   Clear
10:52 AM 21.0 °F 13.4 °F 3.9 °F 48% 29.75 in 10.0 mi WNW 5.8 mph - N/A   Clear
11:52 AM 24.1 °F 19.7 °F 3.9 °F 42% 29.72 in 10.0 mi Variable 3.5 mph - N/A   Clear
12:52 PM 27.0 °F 19.5 °F 1.0 °F 33% 29.68 in 10.0 mi Variable 6.9 mph - N/A   Clear
1:52 PM 28.9 °F 22.8 °F 3.0 °F 33% 29.65 in 10.0 mi WNW 5.8 mph - N/A   Overcast
2:52 PM 32.0 °F 28.7 °F 1.9 °F 28% 29.61 in 10.0 mi Variable 3.5 mph - N/A   Scattered Clouds
3:52 PM 30.9 °F 24.3 °F 8.1 °F 38% 29.59 in 10.0 mi West 6.9 mph - 0.00 in   Mostly Cloudy
4:52 PM 30.0 °F 21.7 °F 12.0 °F 47% 29.58 in 10.0 mi SSW 9.2 mph 17.3 mph N/A   Overcast
5:52 PM 30.9 °F 26.2 °F 12.0 °F 46% 29.58 in 10.0 mi Variable 4.6 mph - N/A   Overcast
6:52 PM 28.9 °F 21.9 °F 17.1 °F 61% 29.59 in 10.0 mi SW 6.9 mph - N/A   Overcast
7:52 PM 28.0 °F - 19.9 °F 72% 29.60 in 9.0 mi Calm Calm - N/A   Overcast
8:52 PM 27.0 °F - 21.0 °F 78% 29.61 in 10.0 mi Calm Calm - N/A   Overcast
9:06 PM 26.6 °F - 21.2 °F 80% 29.55 in 2.5 mi Calm Calm - 0.00 in Snow Light Snow
9:32 PM 26.6 °F - 21.2 °F 80% 29.55 in 4.0 mi Calm Calm - 0.00 in Snow Light Snow
9:40 PM 26.6 °F - 21.2 °F 80% 29.55 in 8.0 mi Calm Calm - 0.00 in   Overcast
9:52 PM 26.1 °F - 21.0 °F 81% 29.61 in 5.0 mi Calm Calm - 0.00 in Snow Light Snow
10:13 PM 24.8 °F - 21.2 °F 86% 29.55 in 7.0 mi Calm Calm - 0.00 in   Overcast
10:25 PM 26.6 °F 21.2 °F 21.2 °F 80% 29.56 in 6.0 mi Variable 4.6 mph - 0.00 in Snow Light Snow
10:52 PM 26.1 °F 19.4 °F 18.0 °F 71% 29.62 in 10.0 mi Variable 5.8 mph - 0.00 in   Partly Cloudy
11:52 PM 25.0 °F 16.3 °F 16.0 °F 69% 29.64 in 10.0 mi West 8.1 mph 18.4 mph N/A   Mostly Cloudy